Location: *
(49.1466°N, 1.6216°E)
Time: 01:19:38
(UTC+00:00)

ADEOS Rocket - Pass Details

Date: 25 September 2023
Orbit: 858 x 1306 km, 98.7° (Epoch: 30 November)

Event Time Altitude Azimuth Distance (km) Brightness Sun altitude
Exits shadow 19:07:37 13° 134° (SE) 3,087 5.1 -14.1°
Maximum altitude 19:14:16 49° 65° (ENE) 1,607 3.8 -15.1°
Drops below altitude 10° 19:21:20 10° 354° (N) 3,189 6.0 -16.2°
Sets 19:23:59 0° 349° (N) 4,106 6.7 -16.6°
